Location: Zapote
(9.9191°N, 84.0597°W)
Time: 23:44:59
(UTC-06:00)

Envisat - Pass Details

Date: 26 January 2021
Orbit: 764 x 766 km, 98.1° (Epoch: 02 March)

Event Time Altitude Azimuth Distance (km) Brightness Sun altitude
Rises 04:47:11 0° 18° (NNE) 3,218 6.3 -17.6°
Reaches altitude 10° 04:49:31 10° 22° (NNE) 2,293 5.5 -17.1°
Maximum altitude 04:54:29 59° 102° (ESE) 878 3.6 -15.9°
Drops below altitude 10° 04:59:27 10° 181° (S) 2,293 5.7 -14.7°
Sets 05:01:47 0° 184° (S) 3,219 6.4 -14.2°
